[[{"header":{"parameterUnit":"m.s-1","parameterCategory":1,"la1":30.2992,"la2":30.254,"lo1":-89.0895,"lo2":-89.0443,"dy":0.0025,"dx":0.0025,"nx":19,"ny":19,"refTime":"2026-03-19T03:00:00:Z","depth":0,"parameterNumber":2,"parameterNumberName":"U-component_of_WINDS"},"data":[0,0,0,0.6548,0.655,0.6674,0.6675,0.6817,0.6818,0,0,0,0,0,0,0,0,0,0,0,0.6502,0.6503,0.6547,0.655,0.6674,0.6675,0.6817,0.6818,0,0,0,0,0,0,0,0,0,0,0,0.6502,0.6503,0.6504,0.6551,0.6674,0.6675,0.6817,0.6729,0,0,0,0,0,0,0,0,0,0,0.6611,0.6561,0.6502,0.6504,0.6551,0.6674,0.6675,0.6725,0.6734,0.6755,0,0.6771,0,0.6797,0.6827,0.6828,0,0,0,0.6557,0.6553,0.6594,0.6504,0.6552,0.6673,0.662,0.673,0.6741,0.6767,0.6773,0.6779,0.6799,0.6828,0.6829,0.6924,0.6925,0,0,0.655,0.652,0.6587,0.6601,0.6581,0.6616,0.6624,0.6737,0.6741,0.6774,0.6783,0.6802,0.6829,0.683,0.6924,0.6924,0,0,0,0.6526,0.6515,0.6554,0.6594,0.6618,0.6619,0.6628,0.6737,0.6752,0.6784,0.6803,0.6829,0.6831,0.6924,0.6924,0.6902,0,0,0,0.6522,0.6501,0.655,0.6533,0.6615,0.6679,0.6625,0.6744,0.6758,0.6803,0.683,0.6832,0.6924,0.6924,0.6902,0.6896,0,0,0,0.6497,0.6498,0.6513,0.6531,0.6583,0.6678,0.67,0.6748,0.6769,0.6828,0.6833,0.6924,0.6924,0.6902,0.6897,0.6912,0,0,0,0.6462,0.6491,0.6512,0.6552,0.6582,0.6663,0.6699,0.6761,0.6809,0.683,0.6924,0.6924,0.6902,0.6897,0.6912,0.6919,0.6919,0,0,0.6482,0.6493,0.6519,0.6541,0.661,0.6646,0.6712,0.6785,0.6818,0.6887,0.689,0.6902,0.6897,0.6912,0.6931,0.693,0,0,0,0.6515,0.6534,0.6559,0.6602,0.6658,0.6705,0.677,0.6797,0.6857,0.6848,0.6913,0.691,0.692,0.6925,0.6925,0.6935,0.6925,0.6925,0.6925,0.6501,0.6542,0.6587,0.6642,0.6684,0.675,0.6788,0.6835,0.6864,0.6879,0.6899,0.6906,0.691,0.691,0.692,0.6907,0.6906,0.6906,0.6906,0.6535,0.6567,0.6604,0.6661,0.6703,0.6752,0.6816,0.6835,0.6886,0.6894,0.6905,0.691,0.6909,0.692,0.6905,0.6905,0.6905,0.6906,0.6906,0.653,0.6552,0.6584,0.665,0.6696,0.6751,0.6798,0.6835,0.687,0.6881,0.6906,0.6906,0.6911,0.689,0.689,0.689,0.689,0.689,0.689,0.6512,0.6548,0.6583,0.6644,0.6676,0.6723,0.6789,0.6821,0.6867,0.689,0.689,0.6917,0.6901,0.6896,0.6891,0.6891,0.689,0.689,0.689,0.653,0.6532,0.6586,0.6618,0.6691,0.6734,0.678,0.6843,0.6875,0.6897,0.6921,0.6904,0.6917,0.6918,0.6914,0.6913,0.6913,0.6913,0.6913,0.6526,0.6536,0.6599,0.6647,0.6699,0.6746,0.6805,0.6855,0.6908,0.6931,0.6936,0.6934,0.6933,0.6947,0.6947,0.6944,0.695,0.6951,0.6951,0.6539,0.6555,0.6599,0.665,0.671,0.676,0.6816,0.687,0.693,0.6953,0.6948,0.6947,0.6944,0.6941,0.6964,0.6963,0.6958,0,0]},{"header":{"parameterUnit":"m.s-1","parameterCategory":1,"la1":30.2992,"la2":30.254,"lo1":-89.0895,"lo2":-89.0443,"dy":0.0025,"dx":0.0025,"nx":19,"ny":19,"refTime":"2026-03-19T03:00:00:Z","depth":0,"parameterNumber":3,"parameterNumberName":"V-component_of_WINDS"},"data":[0,0,0,2.5672,2.567,2.5589,2.5589,2.5484,2.5483,0,0,0,0,0,0,0,0,0,0,0,2.57,2.57,2.5672,2.567,2.5589,2.5589,2.5485,2.5483,0,0,0,0,0,0,0,0,0,0,0,2.5701,2.57,2.5699,2.567,2.5589,2.5589,2.5485,2.5545,0,0,0,0,0,0,0,0,0,0,2.5623,2.5655,2.57,2.5699,2.5669,2.5589,2.5588,2.5548,2.5541,2.5523,0,2.5511,0,2.5496,2.5477,2.5477,0,0,0,2.5665,2.5661,2.5636,2.5699,2.5669,2.5589,2.5624,2.5544,2.5537,2.5514,2.551,2.5506,2.5494,2.5476,2.5476,2.5394,2.5394,0,0,2.567,2.5687,2.5641,2.5631,2.5649,2.5627,2.5622,2.5539,2.5534,2.5509,2.5503,2.5493,2.5476,2.5475,2.5394,2.5394,0,0,0,2.5686,2.569,2.5667,2.5635,2.5621,2.5625,2.5619,2.5538,2.5529,2.5502,2.5492,2.5475,2.5474,2.5394,2.5394,2.5404,0,0,0,2.5688,2.57,2.5669,2.5679,2.5623,2.558,2.5619,2.5535,2.5525,2.5492,2.5475,2.5473,2.5394,2.5394,2.5404,2.5405,0,0,0,2.5704,2.5701,2.5692,2.568,2.5646,2.5581,2.5567,2.5532,2.5519,2.5477,2.5473,2.5395,2.5394,2.5404,2.5405,2.5388,0,0,0,2.5724,2.57,2.5692,2.566,2.5647,2.5589,2.5567,2.5522,2.5487,2.5475,2.5394,2.5394,2.5404,2.5405,2.5388,2.5376,2.5374,0,0,2.5703,2.5698,2.5678,2.5669,2.5617,2.56,2.5548,2.5497,2.5475,2.5421,2.5419,2.5404,2.5405,2.5388,2.5354,2.5352,0,0,0,2.5676,2.5662,2.5645,2.5615,2.5578,2.5546,2.5502,2.5483,2.5437,2.5453,2.5393,2.5393,2.5382,2.5376,2.5374,2.5362,2.5392,2.5392,2.5392,2.5669,2.5646,2.561,2.5577,2.5547,2.5503,2.5475,2.5441,2.5424,2.541,2.5394,2.5377,2.537,2.5368,2.5357,2.5386,2.5386,2.5386,2.5386,2.5634,2.561,2.559,2.5548,2.5522,2.5484,2.544,2.5429,2.5387,2.5387,2.5376,2.5377,2.5367,2.5355,2.5387,2.5387,2.5387,2.5387,2.5387,2.5626,2.561,2.5591,2.5544,2.551,2.5475,2.5438,2.5414,2.5391,2.538,2.5359,2.5359,2.5354,2.5372,2.5372,2.5372,2.5372,2.5372,2.5372,2.5625,2.5603,2.5576,2.5536,2.5513,2.548,2.5435,2.541,2.5375,2.536,2.536,2.5342,2.5372,2.5379,2.5371,2.5371,2.5371,2.5371,2.5371,2.5597,2.56,2.5559,2.5537,2.5486,2.5453,2.5424,2.5375,2.5351,2.5332,2.5317,2.5343,2.5335,2.5336,2.5342,2.5324,2.5324,2.5324,2.5324,2.5589,2.5584,2.5537,2.5502,2.5465,2.5435,2.5384,2.5348,2.531,2.5292,2.5292,2.5297,2.53,2.529,2.5292,2.5296,2.5268,2.5268,2.5268,2.5569,2.556,2.5524,2.5492,2.545,2.5414,2.5366,2.5322,2.5279,2.5265,2.5278,2.528,2.5289,2.5294,2.5279,2.5283,2.5291,0,0]}]]